Weather observations for the past three days for
Batesville, Batesville Regional Airport
| Date | Time (cdt) | Wind (kph) | Vis. (km) | Weather | Sky Cond. | Temperature (ºC) | Relative Humidity | Wind Chill (°C) | Heat Index (°C) | Pressure | Precipitation (cm) | ||||||
|---|---|---|---|---|---|---|---|---|---|---|---|---|---|---|---|---|---|
| Air | Dwpt | 6 hour | altimeter (cm) | sea level (mb) | 1 hr | 3 hr | 6 hr | ||||||||||
| Max. | Min. | ||||||||||||||||
| 05 | 00:56 | SE 13 | 16.09 | Fair | CLR | 18.9 | 11.7 | 24.4 | 18.9 | 63% | 75.64 | 1008.2 | |||||
| 04 | 23:56 | S 13 | 16.09 | Fair | CLR | 20 | 11.7 | 59% | 75.67 | 1008.5 | |||||||
| 04 | 22:56 | S 11 | 16.09 | Fair | CLR | 20.6 | 11.7 | 57% | 75.69 | 1008.7 | |||||||
| 04 | 21:56 | S 17 G 31 | 16.09 | Fair | CLR | 21.7 | 11.7 | 53% | 75.67 | 1008.5 | |||||||
| 04 | 20:56 | SE 13 | 16.09 | Fair | CLR | 21.7 | 12.2 | 55% | 75.64 | 1008.2 | |||||||
| 04 | 19:56 | E 7 | 16.09 | Fair | CLR | 22.2 | 12.2 | 53% | 75.59 | 1007.3 | |||||||
| 04 | 18:56 | S 6 | 16.09 | Fair | CLR | 24.4 | 12.2 | 26.7 | 24.4 | 47% | 26 | 75.59 | 1007.6 | ||||
| 04 | 17:56 | SW 19 G 33 | 16.09 | Fair | CLR | 25 | 11.7 | 43% | 26 | 75.64 | 1008.0 | ||||||
| 04 | 16:56 | SW 24 G 35 | 16.09 | Fair | CLR | 26.1 | 11.7 | 41% | 26 | 75.64 | 1008.2 | ||||||
| 04 | 15:56 | SW 28 G 43 | 16.09 | A Few Clouds | FEW060 | 26.1 | 11.7 | 41% | 26 | 75.69 | 1008.7 | ||||||
| 04 | 14:56 | SW 24 G 41 | 16.09 | Fair | CLR | 26.1 | 11.7 | 41% | 26 | 75.74 | 1009.4 | ||||||
| 04 | 13:56 | S 28 G 43 | 16.09 | Fair | CLR | 26.1 | 11.1 | 39% | 26 | 75.77 | 1010.0 | ||||||
| 04 | 12:56 | SW 20 G 37 | 16.09 | Fair | CLR | 25.6 | 11.7 | 25.6 | 14.4 | 42% | 26 | 75.82 | 1010.5 | ||||
| 04 | 11:56 | SW 17 G 39 | 16.09 | Fair | CLR | 25 | 11.7 | 43% | 26 | 75.87 | 1011.3 | ||||||
| 04 | 10:56 | SW 22 G 37 | 16.09 | Fair | CLR | 23.9 | 10.6 | 43% | 25 | 75.95 | 1012.2 | ||||||
| 04 | 09:56 | SW 22 G 30 | 16.09 | Fair | CLR | 22.2 | 11.1 | 50% | 75.97 | 1012.7 | |||||||
| 04 | 08:56 | SW 13 | 16.09 | Fair | CLR | 20 | 11.7 | 59% | 76 | 1012.9 | |||||||
| 04 | 07:56 | SW 6 | 16.09 | Fair | CLR | 17.2 | 11.7 | 70% | 75.97 | 1012.5 | |||||||
| 04 | 06:56 | Calm | 16.09 | Fair | CLR | 14.4 | 10.6 | 17.8 | 14.4 | 78% | 75.95 | 1012.4 | |||||
| 04 | 05:56 | SW 7 | 16.09 | Fair | CLR | 16.1 | 10.6 | 70% | 75.92 | 1012.0 | |||||||
| 04 | 04:56 | S 7 | 16.09 | Fair | CLR | 16.1 | 10.6 | 70% | 75.95 | 1012.1 | |||||||
| 04 | 03:56 | SW 7 | 16.09 | Fair | CLR | 17.2 | 11.1 | 68% | 75.97 | 1012.6 | |||||||
| 04 | 02:56 | SW 13 | 16.09 | Fair | CLR | 17.8 | 11.1 | 65% | 75.97 | 1012.7 | |||||||
| 04 | 01:56 | S 6 | 16.09 | Fair | CLR | 17.8 | 11.1 | 65% | 76 | 1013.0 | |||||||
| 04 | 00:56 | S 7 | 16.09 | Fair | CLR | 18.3 | 11.1 | 23.3 | 18.3 | 63% | 76.05 | 1013.6 | |||||
| 03 | 23:56 | S 9 | 16.09 | Fair | CLR | 18.3 | 10.6 | 61% | 76.07 | 1013.8 | |||||||
| 03 | 22:56 | S 6 | 16.09 | Fair | CLR | 18.9 | 10.6 | 59% | 76.1 | 1014.4 | |||||||
| 03 | 21:56 | S 6 | 16.09 | Fair | CLR | 19.4 | 10 | 55% | 76.1 | 1014.3 | |||||||
| 03 | 20:56 | S 7 | 16.09 | Fair | CLR | 20 | 10 | 53% | 76.07 | 1014.2 | |||||||
| 03 | 19:56 | S 7 | 16.09 | Fair | CLR | 21.7 | 10 | 47% | 76.05 | 1013.8 | |||||||
| 03 | 18:56 | S 7 | 16.09 | Fair | CLR | 23.3 | 10 | 25 | 21.1 | 43% | 76.07 | 1014.1 | |||||
| 03 | 17:56 | SW 13 | 16.09 | Fair | CLR | 24.4 | 10 | 40% | 25 | 76.1 | 1014.5 | ||||||
| 03 | 16:56 | SW 17 | 16.09 | Fair | CLR | 24.4 | 8.9 | 37% | 25 | 76.15 | 1015.2 | ||||||
| 03 | 15:56 | SW 15 | 16.09 | Fair | CLR | 24.4 | 8.9 | 37% | 25 | 76.23 | 1016.2 | ||||||
| 03 | 14:56 | SW 15 | 16.09 | Fair | CLR | 23.9 | 8.9 | 39% | 25 | 76.3 | 1017.2 | ||||||
| 03 | 13:56 | SW 17 G 26 | 16.09 | Fair | CLR | 22.8 | 7.8 | 38% | 76.38 | 1018.1 | |||||||
| 03 | 12:56 | S 19 G 28 | 16.09 | Fair | CLR | 21.7 | 7.8 | 21.7 | 6.1 | 41% | 76.48 | 1019.4 | |||||
| 03 | 11:56 | SW 15 | 16.09 | Fair | CLR | 19.4 | 6.7 | 44% | 76.56 | 1020.6 | |||||||
| 03 | 10:56 | S 13 | 16.09 | Fair | CLR | 18.3 | 6.1 | 45% | 76.61 | 1021.3 | |||||||
| 03 | 09:56 | SW 13 | 16.09 | Fair | CLR | 16.7 | 6.1 | 50% | 76.66 | 1021.9 | |||||||
| 03 | 08:56 | S 9 | 16.09 | Fair | CLR | 14.4 | 6.1 | 58% | 76.66 | 1021.8 | |||||||
| 03 | 07:56 | S 6 | 16.09 | Fair | CLR | 11.1 | 6.1 | 72% | 76.66 | 1021.8 | |||||||
| 03 | 06:56 | Calm | 16.09 | Fair | CLR | 6.1 | 5 | 8.9 | 4.4 | 93% | 76.63 | 1021.6 | |||||
| 03 | 05:56 | Calm | 16.09 | Fair | CLR | 5 | 3.9 | 93% | 76.58 | 1021.1 | |||||||
| 03 | 04:56 | Calm | 16.09 | Fair | CLR | 5.6 | 4.4 | 92% | 76.61 | 1021.2 | |||||||
| 03 | 03:56 | NW 6 | 16.09 | Fair | CLR | 6.1 | 5 | 93% | 76.61 | 1021.2 | |||||||
| 03 | 02:56 | NW 6 | 16.09 | Fair | CLR | 6.1 | 5 | 93% | 76.61 | 1021.1 | |||||||
| 03 | 01:56 | Calm | 16.09 | Fair | CLR | 7.2 | 4.4 | 83% | 76.61 | 1021.1 | |||||||
| 03 | 00:56 | Calm | 16.09 | Fair | CLR | 8.3 | 4.4 | 19.4 | 8.3 | 77% | 76.58 | 1021.0 | |||||
| 02 | 23:56 | NW 6 | 16.09 | Fair | CLR | 8.9 | 5 | 77% | 76.56 | 1020.7 | |||||||
| 02 | 22:56 | Calm | 16.09 | Fair | CLR | 10.6 | 3.9 | 64% | 76.53 | 1020.3 | |||||||
| 02 | 21:56 | Calm | 16.09 | Fair | CLR | 12.2 | 4.4 | 59% | 76.53 | 1020.1 | |||||||
| 02 | 20:56 | Calm | 14.48 | Fair | CLR | 13.9 | 2.8 | 47% | 76.45 | 1019.4 | |||||||
| 02 | 19:56 | NW 6 | 16.09 | Fair | CLR | 16.7 | 1.7 | 37% | 76.4 | 1018.6 | |||||||
| 02 | 18:56 | Vrbl 7 | 16.09 | Fair | CLR | 19.4 | 1.1 | 21.7 | 19.4 | 30% | 76.38 | 1018.1 | |||||
| 02 | 17:56 | NW 13 G 26 | 16.09 | Fair | CLR | 20.6 | 0 | 25% | 76.35 | 1018.0 | |||||||
| 02 | 16:56 | NW 19 G 31 | 16.09 | Fair | CLR | 21.1 | 0.6 | 26% | 76.35 | 1017.7 | |||||||
| 02 | 15:56 | NW 13 | 16.09 | A Few Clouds | FEW090 | 21.1 | 1.1 | 27% | 76.35 | 1017.9 | |||||||
| 02 | 14:56 | NW 15 G 28 | 16.09 | A Few Clouds | FEW085 | 21.7 | 2.2 | 28% | 76.38 | 1018.3 | |||||||
| 02 | 13:56 | NW 17 G 31 | 16.09 | Fair | CLR | 20.6 | 3.3 | 32% | 76.4 | 1018.6 | |||||||
| 02 | 12:56 | NW 15 G 28 | 16.09 | Fair | CLR | 20.6 | 4.4 | 20.6 | 6.7 | 35% | 76.45 | 1019.3 | |||||
| 02 | 11:56 | NW 13 | 16.09 | Fair | CLR | 18.9 | 3.3 | 36% | 76.48 | 1019.6 | |||||||
| 02 | 10:56 | W 13 | 16.09 | Fair | CLR | 17.2 | 5.6 | 47% | 76.5 | 1019.8 | |||||||
| 02 | 09:56 | W 17 | 16.09 | Fair | CLR | 16.1 | 5.6 | 50% | 76.48 | 1019.7 | |||||||
| 02 | 08:56 | SW 6 | 16.09 | A Few Clouds | FEW095 | 12.2 | 5.6 | 64% | 76.48 | 1019.7 | |||||||
| 02 | 07:56 | W 6 | 16.09 | Fair | CLR | 9.4 | 6.1 | 80% | 76.48 | 1019.6 | |||||||
| 02 | 06:56 | NW 6 | 16.09 | A Few Clouds | FEW080 | 6.7 | 5 | 10 | 6.1 | 89% | 76.43 | 1019.0 | |||||
| 02 | 05:56 | NW 7 | 16.09 | Fair | CLR | 6.1 | 5.6 | 97% | 5 | 76.38 | 1018.2 | ||||||
| 02 | 04:56 | Calm | 16.09 | Fair | CLR | 6.1 | 5.6 | 97% | 76.35 | 1017.9 | |||||||
| 02 | 03:56 | Calm | 16.09 | Fair | CLR | 7.2 | 6.1 | 93% | 76.35 | 1017.8 | |||||||
| 02 | 02:56 | Calm | 16.09 | Fair | CLR | 8.3 | 6.1 | 86% | 76.33 | 1017.6 | |||||||
| 02 | 01:56 | NW 6 | 16.09 | Fair | CLR | 8.9 | 6.7 | 86% | 76.38 | 1018.1 | |||||||
| Date | Time (cdt) | Wind (kph) | Vis. (km) | Weather | Sky Cond. | Air | Dwpt | Max. | Min. | Relative Humidity | Wind Chill (°C) | Heat Index (°C) | altimeter (cm) | sea level (mb) | 1 hr | 3 hr | 6 hr |
| 6 hour | |||||||||||||||||
| Temperature (ºC) | Pressure | Precipitation (cm) | |||||||||||||||